Location: Spring Creek
(38.2870°N, 100.2160°W)
Time: 09:05:31
(UTC+00:00)

Cosmos 1666 Rocket - Pass Details

Date: 08 May 2021
Orbit: 603 x 634 km, 82.5° (Epoch: 21 June)

Event Time Altitude Azimuth Distance (km) Brightness Sun altitude
Rises 04:01:30 0° 349° (N) 2,906 8.0 -23.6°
Reaches altitude 10° 04:03:45 10° 346° (NNW) 1,991 7.0 -23.9°
Maximum altitude 04:08:07 64° 266° (W) 683 3.8 -24.4°
Enters shadow 04:08:26 61° 240° (WSW) 697 3.7 -24.5°
